Hourly Weather Bolu

Today, 31 July, Saturday

Time Temperature Precipitation Wind Pressure Humidity
00:00 +21°C° 0 mm 2 mps 696 mmHg 52%
01:00 +21°C° 0 mm 2 mps 696 mmHg 50%
02:00 +21°C° 0 mm 1 mps 696 mmHg 48%
03:00 +21°C° 0 mm 1 mps 696 mmHg 48%
04:00 +21°C° 0 mm 1 mps 695 mmHg 48%
05:00 +21°C° 0 mm 1 mps 695 mmHg 49%
06:00 +24°C° 0 mm 1 mps 696 mmHg 44%
07:00 +26°C° 0 mm 1 mps 696 mmHg 39%
08:00 +29°C° 0 mm 1 mps 697 mmHg 35%
09:00 +30°C° 0 mm 2 mps 697 mmHg 33%
10:00 +31°C° 0 mm 2 mps 697 mmHg 31%
11:00 +33°C° 0 mm 3 mps 697 mmHg 29%
12:00 +34°C° 0 mm 4 mps 697 mmHg 28%
13:00 +34°C° 0 mm 4 mps 696 mmHg 28%
14:00 +34°C° 0 mm 5 mps 696 mmHg 28%
15:00 +33°C° 0 mm 5 mps 696 mmHg 30%
16:00 +32°C° 0 mm 4 mps 696 mmHg 32%
17:00 +30°C° 0 mm 4 mps 696 mmHg 34%
18:00 +27°C° 0 mm 3 mps 696 mmHg 42%
19:00 +25°C° 0 mm 2 mps 696 mmHg 50%
20:00 +22°C° 0 mm 1 mps 696 mmHg 58%
21:00 +22°C° 0 mm 1 mps 696 mmHg 58%
22:00 +22°C° 0 mm 1 mps 696 mmHg 57%
23:00 +21°C° 0 mm 1 mps 696 mmHg 57%

Tomorrow, 1 August, Sunday

Time Temperature Precipitation Wind Pressure Humidity
00:00 +21°C° 0 mm 1 mps 696 mmHg 55%
01:00 +21°C° 0 mm 1 mps 696 mmHg 53%
02:00 +20°C° 0 mm 1 mps 696 mmHg 51%
03:00 +20°C° 0 mm 1 mps 696 mmHg 50%
04:00 +20°C° 0 mm 1 mps 696 mmHg 48%
05:00 +19°C° 0 mm 1 mps 696 mmHg 46%
06:00 +22°C° 0 mm 1 mps 696 mmHg 41%
07:00 +25°C° 0 mm 1 mps 697 mmHg 35%
08:00 +27°C° 0 mm 1 mps 697 mmHg 29%
09:00 +29°C° 0 mm 2 mps 697 mmHg 26%
10:00 +30°C° 0 mm 2 mps 697 mmHg 23%
11:00 +31°C° 0 mm 3 mps 697 mmHg 20%
12:00 +33°C° 0 mm 3 mps 697 mmHg 21%
13:00 +33°C° 0 mm 4 mps 697 mmHg 22%
14:00 +33°C° 0 mm 4 mps 697 mmHg 23%
15:00 +32°C° 0 mm 4 mps 697 mmHg 26%
16:00 +30°C° 0 mm 4 mps 697 mmHg 29%
17:00 +29°C° 0 mm 4 mps 697 mmHg 32%
18:00 +26°C° 0 mm 3 mps 697 mmHg 41%
19:00 +24°C° 0 mm 2 mps 697 mmHg 50%
20:00 +21°C° 0 mm 1 mps 696 mmHg 59%
21:00 +21°C° 0 mm 1 mps 696 mmHg 57%
22:00 +21°C° 0 mm 1 mps 696 mmHg 55%
23:00 +20°C° 0 mm 1 mps 696 mmHg 53%

Day after tomorrow, 2 August, Monday

Time Temperature Precipitation Wind Pressure Humidity
00:00 +20°C° 0 mm 1 mps 696 mmHg 51%
01:00 +20°C° 0 mm 1 mps 696 mmHg 49%
02:00 +19°C° 0 mm 1 mps 696 mmHg 46%
03:00 +19°C° 0 mm 1 mps 696 mmHg 46%
04:00 +19°C° 0 mm 1 mps 696 mmHg 45%
05:00 +19°C° 0 mm 1 mps 696 mmHg 45%
06:00 +22°C° 0 mm 1 mps 697 mmHg 39%
07:00 +25°C° 0 mm 1 mps 697 mmHg 33%
08:00 +28°C° 0 mm 1 mps 697 mmHg 27%
09:00 +29°C° 0 mm 1 mps 697 mmHg 24%
10:00 +31°C° 0 mm 2 mps 697 mmHg 22%
11:00 +32°C° 0 mm 2 mps 698 mmHg 19%
12:00 +34°C° 0 mm 3 mps 697 mmHg 20%
13:00 +34°C° 0 mm 3 mps 697 mmHg 20%
14:00 +34°C° 0 mm 4 mps 697 mmHg 21%
15:00 +34°C° 0 mm 3 mps 697 mmHg 23%
16:00 +33°C° 0 mm 3 mps 697 mmHg 26%
17:00 +31°C° 0 mm 3 mps 697 mmHg 28%
18:00 +28°C° 0 mm 2 mps 697 mmHg 36%
19:00 +26°C° 0 mm 2 mps 697 mmHg 44%
20:00 +23°C° 0 mm 1 mps 696 mmHg 53%
21:00 +23°C° 0 mm 1 mps 696 mmHg 51%
22:00 +22°C° 0 mm 1 mps 697 mmHg 49%
23:00 +21°C° 0 mm 2 mps 697 mmHg 47%

3 August, Tuesday

Time Temperature Precipitation Wind Pressure Humidity
00:00 +21°C° 0 mm 2 mps 697 mmHg 42%
01:00 +21°C° 0 mm 2 mps 696 mmHg 37%
02:00 +21°C° 0 mm 2 mps 696 mmHg 31%
03:00 +23°C° 0 mm 2 mps 697 mmHg 28%
04:00 +23°C° 0 mm 2 mps 697 mmHg 25%
05:00 +23°C° 0 mm 1 mps 697 mmHg 22%
06:00 +26°C° 0 mm 1 mps 697 mmHg 21%
07:00 +29°C° 0 mm 1 mps 698 mmHg 19%
08:00 +31°C° 0 mm 1 mps 698 mmHg 18%
09:00 +34°C° 0 mm 2 mps 698 mmHg 17%
10:00 +36°C° 0 mm 2 mps 698 mmHg 16%
11:00 +37°C° 0 mm 3 mps 698 mmHg 15%
12:00 +37°C° 0 mm 3 mps 698 mmHg 16%
13:00 +38°C° 0 mm 4 mps 698 mmHg 16%
14:00 +39°C° 0 mm 5 mps 698 mmHg 16%
15:00 +37°C° 0 mm 4 mps 698 mmHg 19%
16:00 +36°C° 0 mm 4 mps 698 mmHg 21%
17:00 +35°C° 0 mm 4 mps 698 mmHg 24%
18:00 +31°C° 0 mm 3 mps 698 mmHg 30%
19:00 +28°C° 0 mm 2 mps 698 mmHg 37%
20:00 +25°C° 0 mm 1 mps 698 mmHg 43%
21:00 +24°C° 0 mm 1 mps 698 mmHg 44%
22:00 +24°C° 0 mm 1 mps 698 mmHg 45%
23:00 +23°C° 0 mm 1 mps 699 mmHg 46%

4 August, Wednesday

Time Temperature Precipitation Wind Pressure Humidity
00:00 +23°C° 0 mm 1 mps 699 mmHg 45%
01:00 +23°C° 0 mm 1 mps 698 mmHg 44%
02:00 +22°C° 0 mm 1 mps 698 mmHg 43%
03:00 +22°C° 0 mm 1 mps 698 mmHg 43%
04:00 +22°C° 0 mm 1 mps 698 mmHg 42%
05:00 +21°C° 0 mm 2 mps 698 mmHg 42%
06:00 +24°C° 0 mm 1 mps 699 mmHg 38%
07:00 +27°C° 0 mm 1 mps 699 mmHg 33%
08:00 +30°C° 0 mm 1 mps 699 mmHg 29%
09:00 +31°C° 0 mm 1 mps 699 mmHg 26%
10:00 +34°C° 0 mm 2 mps 699 mmHg 23%
11:00 +35°C° 0 mm 2 mps 699 mmHg 20%
12:00 +36°C° 0 mm 3 mps 699 mmHg 20%
13:00 +36°C° 0 mm 3 mps 699 mmHg 20%
14:00 +37°C° 0 mm 4 mps 698 mmHg 20%
15:00 +36°C° 0 mm 4 mps 698 mmHg 24%
16:00 +34°C° 0 mm 3 mps 698 mmHg 29%
17:00 +33°C° 0 mm 3 mps 698 mmHg 33%
18:00 +30°C° 0 mm 3 mps 698 mmHg 42%
19:00 +27°C° 0 mm 2 mps 697 mmHg 51%
20:00 +24°C° 0 mm 1 mps 697 mmHg 59%
21:00 +24°C° 0 mm 1 mps 697 mmHg 58%
22:00 +24°C° 0 mm 1 mps 697 mmHg 57%
23:00 +23°C° 0 mm 1 mps 697 mmHg 56%

5 August, Thursday

Time Temperature Precipitation Wind Pressure Humidity
00:00 +23°C° 0 mm 1 mps 697 mmHg 52%
01:00 +23°C° 0 mm 1 mps 697 mmHg 48%
02:00 +23°C° 0 mm 1 mps 696 mmHg 44%
03:00 +23°C° 0 mm 1 mps 696 mmHg 41%
04:00 +23°C° 0 mm 2 mps 696 mmHg 38%
05:00 +23°C° 0 mm 2 mps 696 mmHg 35%
06:00 +26°C° 0 mm 1 mps 696 mmHg 32%
07:00 +29°C° 0 mm 1 mps 696 mmHg 28%
08:00 +32°C° 0 mm 1 mps 697 mmHg 25%
09:00 +34°C° 0 mm 1 mps 697 mmHg 21%
10:00 +36°C° 0 mm 1 mps 697 mmHg 18%
11:00 +38°C° 0 mm 2 mps 697 mmHg 15%
12:00 +39°C° 0 mm 2 mps 696 mmHg 14%
13:00 +39°C° 0 mm 3 mps 696 mmHg 14%
14:00 +40°C° 0 mm 3 mps 696 mmHg 14%
15:00 +39°C° 0 mm 3 mps 695 mmHg 16%
16:00 +38°C° 0 mm 3 mps 695 mmHg 19%
17:00 +37°C° 0 mm 3 mps 695 mmHg 21%
18:00 +34°C° 0 mm 3 mps 694 mmHg 26%
19:00 +30°C° 0 mm 2 mps 694 mmHg 31%
20:00 +28°C° 0 mm 2 mps 694 mmHg 37%
21:00 +27°C° 0 mm 2 mps 694 mmHg 35%
22:00 +27°C° 0 mm 2 mps 694 mmHg 34%
23:00 +27°C° 0 mm 2 mps 693 mmHg 32%
Show more

We Need Your Consent

Meteoprog and our Service Providers may store and access personal data such as cookies, device identifiers or other similar technologies on your device and process such data to personalise content and ads, as well as provide social media features and to analyse the traffic.

  • Store and/or access information on your device

    Cookies, device identifiers or other information can be stored or accessed on your device for the purposes indicated above.

  • Personalised ads and content, ad and content measurement, audience insights, and products development

    Ads and content can be personalised based on a profile. More data can be added to better personalise ads and content. Ad and content performance can be measured. Insights about the audience who saw the ads and content can be derived. Such data can be used to develop or improve user’s experience, systems and software.

By clicking ‘I Agree’ you will allow the use of indicated cookies, device identifiers, web beacons or other similar technologies. Your settings can be changed in the browser on your device.

For certain purposes, legitimate interests may be relied on, rather than consent. You can read more about this in our Privacy and Cookie Policy.